"2016-01-14 00:00:00",1282971,4.266,216.2,4.276,0.863,13.97,104.1246,9.83,10.85,13.11,0,110.2,13.22,10.62,178.2
"2016-01-14 00:00:30",1282972,4.989,214.1,6.591,1.349,15.39,104.1212,9.82,10.98,13.26,0,110.2,13.22,10.61,176.1
"2016-01-14 00:01:00",1282973,5.017,220.9,7.421,1.392,16.09,104.1232,9.83,11.02,13.27,0,110.2,13.22,10.62,182.9
"2016-01-14 00:01:30",1282974,4.88,216.5,7.946,1.336,15.5,104.1257,9.84,11.04,13.33,0,110.2,13.22,10.62,178.5
"2016-01-14 00:02:00",1282975,3.901,204,1.625,0.119,13.4,104.1297,9.85,10.84,13.13,0,110.2,13.27,10.63,166.0
"2016-01-14 00:02:30",1282976,3.592,209.3,1.71,0.134,13.15,104.1288,9.84,10.84,13.11,0,110.2,13.27,10.63,171.3
"2016-01-14 00:03:00",1282977,3.856,215.6,4.16,0.714,13.84,104.1325,9.85,10.95,13.24,0,110.2,13.22,10.64,177.6
"2016-01-14 00:03:30",1282978,4.597,218.4,7.547,1.424,15.23,104.1328,9.85,10.95,13.28,0,110.2,13.22,10.64,180.4
"2016-01-14 00:04:00",1282979,3.189,210.9,1.374,0.038,13.61,104.1328,9.85,10.91,13.26,0,110.2,13.27,10.64,172.9
"2016-01-14 00:04:30",1282980,4.6,213.4,7.196,1.438,15.48,104.1328,9.85,10.95,13.28,0,110.2,13.22,10.64,175.4
"2016-01-14 00:05:00",1282981,5.115,213.8,7.342,1.355,16.64,104.1328,9.85,11.06,13.54,0,110.2,13.22,10.64,175.8
"2016-01-14 00:05:30",1282982,4.212,207,7.031,1.339,15.48,104.1328,9.85,10.97,13.59,0,110.2,13.22,10.64,169.0
"2016-01-14 00:06:00",1282983,2.918,203.5,1.567,0.113,13.4,104.1328,9.85,10.87,13.52,0,110.2,13.27,10.64,165.5
"2016-01-14 00:06:30",1282984,2.889,210.7,2.562,0.055,13.25,104.1328,9.85,10.86,13.53,0,110.2,13.27,10.64,172.7
"2016-01-14 00:07:00",1282985,3.001,215.6,1.684,0.197,13.34,104.1328,9.85,10.86,13.48,0,110.2,13.27,10.64,177.6
"2016-01-14 00:07:30",1282986,4.115,214.5,6.764,1.207,15.17,104.1328,9.85,10.97,13.61,0,110.2,13.22,10.64,176.5
"2016-01-14 00:08:00",1282987,3.93,213.7,6.958,1.313,15.27,104.1328,9.85,11.02,13.67,0,110.2,13.22,10.64,175.7
"2016-01-14 00:08:30",1282988,3.412,217.1,6.129,0.537,13.8,104.1328,9.85,10.88,13.44,0,110.2,13.27,10.64,179.1
"2016-01-14 00:09:00",1282989,4.965,240.4,6.588,1.245,16.14,104.1331,9.85,11.07,13.44,0,110.2,13.22,10.64,202.4
"2016-01-14 00:09:30",1282990,5.505,229.4,8.53,1.379,17.12,104.1429,9.88,11.09,13.41,0,110.2,13.22,10.67,191.4
"2016-01-14 00:10:00",1282991,3.61,238,6.348,1.258,14.42,104.1647,9.94,11.01,13.33,0,110.2,13.22,10.72,200.0
"2016-01-14 00:10:30",1282992,3.35,228.7,4.447,0.171,12.28,104.1686,9.95,10.93,13.57,0,110.2,13.26,10.73,190.7
"2016-01-14 00:11:00",1282993,2.974,223.8,4.904,0.355,12.63,104.1698,9.95,10.93,13.6,0,110.2,13.26,10.74,185.8
"2016-01-14 00:11:30",1282994,2.43,216.6,4.823,0.161,13.31,104.1717,9.95,10.95,13.33,0,110.2,13.26,10.74,178.6
"2016-01-14 00:12:00",1282995,3.89,225.3,7.514,1.413,15.88,104.174,9.96,11.16,13.42,0,110.2,13.22,10.75,187.3
"2016-01-14 00:12:30",1282996,2.943,220.6,3.938,0.936,14.21,104.1703,9.95,10.97,13.08,0,110.2,13.22,10.74,182.6
"2016-01-14 00:13:00",1282997,2.881,217.5,3.163,0.38,13.48,104.1706,9.95,10.98,13.08,0,110.2,13.26,10.74,179.5
"2016-01-14 00:13:30",1282998,5.252,224.1,8.65,1.454,16.11,104.1768,9.97,11.14,13.29,0,110.2,13.22,10.75,186.1
"2016-01-14 00:14:00",1282999,5.045,222.3,6.869,1.373,16.4,104.1794,9.97,11.21,13.26,0,110.2,13.22,10.76,184.3
"2016-01-14 00:14:30",1283000,4.482,222.3,9.79,1.492,14.82,104.1823,9.98,11.02,12.95,0,110.2,13.22,10.77,184.3
"2016-01-14 00:15:00",1283001,3.623,219.3,3.225,0.224,13.26,104.1823,9.98,10.97,12.88,0,110.2,13.27,10.77,181.3
"2016-01-14 00:15:30",1283002,3.599,210.6,3.8,0.271,13.36,104.1801,9.97,10.98,12.67,0,110.2,13.27,10.76,172.6
"2016-01-14 00:16:00",1283003,4.53,222.2,6.929,1.485,16.1,104.1786,9.97,11.18,12.81,0,110.2,13.22,10.76,184.2
"2016-01-14 00:16:30",1283004,4.157,221.6,8.29,1.379,15.2,104.1764,9.97,11.08,12.64,0,110.2,13.22,10.75,183.6
"2016-01-14 00:17:00",1283005,3.421,210.9,3.132,0.222,13.51,104.1777,9.97,10.97,12.61,0,110.2,13.27,10.76,172.9
"2016-01-14 00:17:30",1283006,5.263,208.4,6.368,1.384,14.83,104.1853,9.99,11.07,12.95,0,110.2,13.23,10.77,170.4
"2016-01-14 00:18:00",1283007,6.242,199.8,7.97,1.354,16.91,104.1985,10.02,11.2,13.03,0,110.2,13.23,10.81,161.8
"2016-01-14 00:18:30",1283008,6.169,207.9,6.775,1.429,15,104.2058,10.04,11.15,13.22,0,110.2,13.22,10.83,169.9
"2016-01-14 00:19:00",1283009,5.226,206.5,1.269,0.105,12.8,104.2094,10.05,11.02,13.65,0,110.2,13.27,10.84,168.5
"2016-01-14 00:19:30",1283010,6.443,213.9,6.097,1.354,15.15,104.2064,10.04,11.11,13.08,0,110.2,13.23,10.83,175.9
"2016-01-14 00:20:00",1283011,6.19,219.5,14.33,1.135,15.68,104.2088,10.05,11.2,12.66,0,110.2,13.23,10.84,181.5
"2016-01-14 00:20:30",1283012,4.672,228.7,7.55,1.004,14.14,104.2097,10.05,11.03,12.46,0,110.2,13.23,10.84,190.7
"2016-01-14 00:21:00",1283013,3.864,212.1,5.386,0.494,13.6,104.2094,10.05,11.01,12.42,0,110.2,13.27,10.84,174.1
"2016-01-14 00:21:30",1283014,5.405,227.7,9.79,1.5,17.27,104.2105,10.05,11.25,12.72,0,110.2,13.23,10.84,189.7
"2016-01-14 00:22:00",1283015,6.014,224.6,8.88,1.54,17.04,104.2105,10.05,11.24,12.67,0,110.2,13.23,10.84,186.6
"2016-01-14 00:22:30",1283016,5.201,211.8,6.123,1.08,15.15,104.2111,10.05,11.16,12.7,0,110.2,13.23,10.84,173.8
"2016-01-14 00:23:00",1283017,5.741,200,7.431,0.479,13.78,104.2102,10.05,11.05,12.75,0,110.2,13.27,10.84,162.0
"2016-01-14 00:23:30",1283018,6.118,200.2,5.313,1.351,15.56,104.2162,10.07,11.23,12.89,0,110.2,13.23,10.85,162.2
"2016-01-14 00:24:00",1283019,5.146,218.3,7.151,1.44,15.95,104.2278,10.1,11.21,12.8,0,110.2,13.23,10.88,180.3
"2016-01-14 00:24:30",1283020,5.493,217.3,2.571,0.542,13.7,104.2422,10.13,11.08,12.78,0,110.2,13.27,10.92,179.3
"2016-01-14 00:25:00",1283021,6.514,222.4,6.782,1.352,15.04,104.2453,10.14,11.19,13.21,0,110.2,13.23,10.93,184.4
"2016-01-14 00:25:30",1283022,6.387,222.8,7.241,1.372,16.86,104.2548,10.17,11.35,13.52,0,110.2,13.22,10.95,184.8
"2016-01-14 00:26:00",1283023,6.555,226.5,7.949,1.546,15.68,104.2678,10.2,11.3,13.64,0,110.2,13.22,10.99,188.5
"2016-01-14 00:26:30",1283024,5.225,210.3,3.576,0.16,13.41,104.2758,10.22,11.17,13.59,0,110.2,13.27,11.01,172.3
"2016-01-14 00:27:00",1283025,5.852,212.9,6.335,1.131,14.92,104.2833,10.24,11.28,13.64,0,110.2,13.22,11.03,174.9
"2016-01-14 00:27:30",1283026,5.61,214.9,12.58,1.366,15.86,104.2854,10.24,11.36,13.8,0,110.2,13.22,11.03,176.9
"2016-01-14 00:28:00",1283027,4.104,202.2,3.45,0.12,13.57,104.2851,10.24,11.17,13.6,0,110.2,13.27,11.03,164.2
"2016-01-14 00:28:30",1283028,4.525,198.3,6.218,1.026,14.25,104.2862,10.25,11.26,13.58,0,110.2,13.22,11.03,160.3
"2016-01-14 00:29:00",1283029,5.614,204.4,7.532,1.409,16.18,104.2871,10.25,11.33,13.68,0,110.2,13.22,11.04,166.4
"2016-01-14 00:29:30",1283030,5.642,201,8.65,1.242,15.05,104.2848,10.24,11.31,13.73,0,110.2,13.22,11.03,163.0
"2016-01-14 00:30:00",1283031,6.214,203.9,9.77,1.431,15.88,104.2862,10.25,11.42,13.86,0,110.2,13.23,11.03,165.9
"2016-01-14 00:30:30",1283032,5.406,202.4,4.408,0.482,13.52,104.2868,10.25,11.22,13.69,0,110.2,13.23,11.04,164.4
"2016-01-14 00:31:00",1283033,6.174,208.7,7.476,1.529,16.3,104.2874,10.25,11.42,14.13,0,110.2,13.23,11.04,170.7
"2016-01-14 00:31:30",1283034,5.179,199,6.476,1.217,14.73,104.2874,10.25,11.32,13.89,0,110.2,13.23,11.04,161.0
"2016-01-14 00:32:00",1283035,4.79,198.9,5.625,1.079,14.42,104.2871,10.25,11.33,13.77,0,110.2,13.23,11.04,160.9
"2016-01-14 00:32:30",1283036,5.343,199.8,7.792,1.383,15.13,104.2878,10.25,11.32,13.81,0,110.2,13.23,11.04,161.8
"2016-01-14 00:33:00",1283037,4.431,197.7,4.181,0.351,13.3,104.2853,10.24,11.28,14,0,110.2,13.27,11.03,159.7
"2016-01-14 00:33:30",1283038,5.532,202.4,6.284,1.214,14.67,104.2793,10.23,11.39,14.18,0,110.2,13.23,11.02,164.4
"2016-01-14 00:34:00",1283039,6.377,200.3,7.666,1.468,15.46,104.2742,10.22,11.34,14.24,0,110.2,13.23,11.00,162.3
"2016-01-14 00:34:30",1283040,5.814,201.2,6.99,1.096,13.95,104.2579,10.17,11.24,14.12,0,110.2,13.23,10.96,163.2
"2016-01-14 00:35:00",1283041,7.24,207.3,7.065,1.381,16.37,104.2571,10.17,11.34,13.98,0,110.2,13.23,10.96,169.3
"2016-01-14 00:35:30",1283042,5.825,205.4,5.564,1.156,14.84,104.2565,10.17,11.38,13.92,0,110.2,13.23,10.96,167.4
"2016-01-14 00:36:00",1283043,7.047,211.7,7.065,1.443,15.85,104.2586,10.18,11.37,13.97,0,110.2,13.23,10.96,173.7
"2016-01-14 00:36:30",1283044,5.733,201.6,1.651,0.239,12.96,104.258,10.17,11.19,13.9,0,110.2,13.27,10.96,163.6
"2016-01-14 00:37:00",1283045,5.511,215.7,8.17,1.034,14.19,104.2583,10.17,11.24,13.99,0,110.2,13.23,10.96,177.7
"2016-01-14 00:37:30",1283046,6.138,216.7,9.13,1.415,14.89,104.2603,10.18,11.34,14.04,0,110.2,13.23,10.97,178.7
"2016-01-14 00:38:00",1283047,6.209,216.5,7.276,1.653,15.66,104.2603,10.18,11.3,14.02,0,110.2,13.23,10.97,178.5
"2016-01-14 00:38:30",1283048,7.377,222.1,9.54,1.391,16.18,104.26,10.18,11.27,13.9,0,110.2,13.23,10.97,184.1
"2016-01-14 00:39:00",1283049,6.292,227.2,8.17,1.317,16.06,104.2595,10.18,11.37,14.14,0,110.2,13.23,10.97,189.2
"2016-01-14 00:39:30",1283050,7.085,223.1,7.966,1.295,15.05,104.2541,10.16,11.27,14.14,0,110.3,13.23,10.95,185.1
"2016-01-14 00:40:00",1283051,6.548,217.3,4.872,0.349,13.52,104.2515,10.16,11.16,14.04,0,110.2,13.27,10.94,179.3
"2016-01-14 00:40:30",1283052,5.345,206.7,2.459,0.584,13.11,104.251,10.16,11.15,14.05,0,110.2,13.27,10.94,168.7
"2016-01-14 00:41:00",1283053,6.37,214.2,9.81,1.423,15.04,104.2521,10.16,11.3,14.22,0,110.2,13.24,10.95,176.2
"2016-01-14 00:41:30",1283054,6.856,213.6,7.739,1.309,16.34,104.2509,10.16,11.33,14.4,0,110.2,13.24,10.94,175.6
"2016-01-14 00:42:00",1283055,6.84,215.1,10.48,1.657,16.72,104.2518,10.16,11.33,14.47,0,110.2,13.23,10.95,177.1
"2016-01-14 00:42:30",1283056,7.178,211.1,7.279,1.419,15.88,104.2532,10.16,11.32,15.41,0,110.2,13.22,10.95,173.1
"2016-01-14 00:43:00",1283057,7.071,209.6,6.333,1.347,15.21,104.2553,10.17,11.25,15.7,0,110.2,13.23,10.95,171.6
"2016-01-14 00:43:30",1283058,6.582,205.6,1.405,0.232,13.21,104.2564,10.17,11.15,15.85,0,110.2,13.27,10.96,167.6
"2016-01-14 00:44:00",1283059,6.487,206.7,1.421,0.248,13.26,104.2581,10.17,11.16,15.96,0,110.2,13.27,10.96,168.7
"2016-01-14 00:44:30",1283060,8.28,213.6,6.895,1.387,16.05,104.2576,10.17,11.29,16.23,0,110.2,13.23,10.96,175.6
"2016-01-14 00:45:00",1283061,7.729,215.8,7.456,1.357,16.35,104.2592,10.18,11.36,16.31,0,110.2,13.23,10.96,177.8
"2016-01-14 00:45:30",1283062,7.662,218.9,6.185,1.318,16.33,104.2595,10.18,11.34,15.5,0,110.2,13.23,10.97,180.9
"2016-01-14 00:46:00",1283063,7.985,217.5,11.77,1.422,16.75,104.2592,10.18,11.31,15,0,110.2,13.23,10.96,179.5
"2016-01-14 00:46:30",1283064,7.648,211.7,8.08,1.02,14.89,104.2621,10.18,11.26,15.15,0,110.2,13.23,10.97,173.7
"2016-01-14 00:47:00",1283065,6.426,203.7,2.889,0.501,13.19,104.2621,10.18,11.16,15.34,0,110.2,13.27,10.97,165.7
"2016-01-14 00:47:30",1283066,6.034,199.7,6.002,0.441,13.34,104.2618,10.18,11.16,14.8,0,110.2,13.28,10.97,161.7
"2016-01-14 00:48:00",1283067,8.67,205.4,7.088,1.391,16.19,104.2618,10.18,11.32,15.07,0,110.2,13.24,10.97,167.4
"2016-01-14 00:48:30",1283068,8.37,204.9,8.29,1.344,16.78,104.2624,10.19,11.37,15.31,0,110.2,13.24,10.97,166.9
"2016-01-14 00:49:00",1283069,8.41,211.1,7.064,1.406,17.12,104.2612,10.18,11.44,15.39,0,110.2,13.23,10.97,173.1
"2016-01-14 00:49:30",1283070,8.28,206,8.65,1.432,16.39,104.2612,10.18,11.35,15.46,0,110.2,13.24,10.97,168.0
"2016-01-14 00:50:00",1283071,7.74,196.7,6.435,1.14,14.58,104.263,10.19,11.2,15.61,0,110.2,13.24,10.97,158.7
"2016-01-14 00:50:30",1283072,6.926,195.2,3.676,0.201,13.05,104.2641,10.19,11.19,15.73,0,110.2,13.28,10.98,157.2
"2016-01-14 00:51:00",1283073,6.608,199.1,5.199,0.74,13.37,104.2627,10.19,11.16,15.76,0,110.2,13.24,10.97,161.1
"2016-01-14 00:51:30",1283074,6.868,207.9,5.543,0.937,15.14,104.2671,10.2,11.32,15.43,0,110.2,13.23,10.98,169.9
"2016-01-14 00:52:00",1283075,6.863,212.4,9.71,1.387,17.37,104.263,10.19,11.4,14.8,0,110.2,13.23,10.97,174.4
"2016-01-14 00:52:30",1283076,7.395,205.2,10.61,1.454,16.74,104.2627,10.19,11.36,14.71,0,110.2,13.24,10.97,167.2
"2016-01-14 00:53:00",1283077,7.915,208.5,8.15,1.424,15.91,104.2636,10.19,11.34,14.85,0,110.2,13.23,10.98,170.5
"2016-01-14 00:53:30",1283078,5.861,197.3,2.547,0.911,12.8,104.2633,10.19,11.19,14.68,0,110.2,13.24,10.98,159.3
"2016-01-14 00:54:00",1283079,5.658,191.5,1.5,0.347,12.63,104.2647,10.19,11.17,14.75,0,110.2,13.28,10.98,153.5
"2016-01-14 00:54:30",1283080,5.839,190.4,3.702,0.507,13.33,104.2653,10.19,11.2,14.89,0,110.2,13.28,10.98,152.4
"2016-01-14 00:55:00",1283081,8.03,189.1,6.546,1.52,16.29,104.2641,10.19,11.33,14.99,0,110.2,13.24,10.98,151.1
"2016-01-14 00:55:30",1283082,7.369,190.5,7.986,1.468,17.21,104.2636,10.19,11.39,15.38,0,110.2,13.24,10.98,152.5
"2016-01-14 00:56:00",1283083,7.046,195.2,8.91,1.602,17.12,104.265,10.19,11.43,14.82,0,110.2,13.24,10.98,157.2
"2016-01-14 00:56:30",1283084,5.882,188.9,11.36,1.518,15.24,104.2644,10.19,11.37,14.37,0,110.2,13.24,10.98,150.9
"2016-01-14 00:57:00",1283085,5.055,201.8,8.93,0.811,14.27,104.2674,10.2,11.23,13.6,0,110.2,13.23,10.99,163.8
"2016-01-14 00:57:30",1283086,5.115,206.3,9.6,0.686,13.36,104.2677,10.2,11.18,12.91,0,110.2,13.27,10.99,168.3
"2016-01-14 00:58:00",1283087,5.889,221,3.081,0.407,13.53,104.2686,10.2,11.17,12.26,0,110.2,13.28,10.99,183.0
"2016-01-14 00:58:30",1283088,4.07,194.9,11.21,0.63,13.78,104.2691,10.2,11.2,12.11,0,110.2,13.28,10.99,156.9
"2016-01-14 00:59:00",1283089,7.737,218.3,12.46,1.836,17.26,104.2879,10.25,11.39,12.68,0,110.2,13.23,11.04,180.3
"2016-01-14 00:59:30",1283090,7.105,218.1,8.96,1.462,17.24,104.2989,10.28,11.46,12.04,0,110.2,13.23,11.07,180.1
"2016-01-14 01:00:00",1283091,7.138,198.3,18.6,1.639,16.78,104.3001,10.28,11.46,12.68,0,110.2,13.23,11.07,160.3
"2016-01-14 01:00:30",1283092,7.225,203.3,15.15,1.939,15.58,104.301,10.28,11.31,12.82,0,110.2,13.23,11.07,165.3
"2016-01-14 01:01:00",1283093,5.14,198.3,6.61,0.59,13.09,104.3182,10.33,11.23,13.56,0,110.2,13.28,11.12,160.3
"2016-01-14 01:01:30",1283094,4.828,233.8,11.26,0.831,13.13,104.3363,10.37,11.26,13.2,0,110.2,13.27,11.16,195.8
"2016-01-14 01:02:00",1283095,5.19,228.4,5.542,0.853,13.25,104.3357,10.37,11.26,13.03,0,110.2,13.28,11.16,190.4
"2016-01-14 01:02:30",1283096,6.421,235.5,9.36,1.53,16.11,104.336,10.37,11.37,12.81,0,110.2,13.23,11.16,197.5
"2016-01-14 01:03:00",1283097,5.74,220,23.67,1.752,17.17,104.3349,10.37,11.53,13,0,110.2,13.23,11.16,182.0
"2016-01-14 01:03:30",1283098,5.921,191,9.64,1.605,16.54,104.3352,10.37,11.54,14.05,0,110.2,13.23,11.16,153.0
"2016-01-14 01:04:00",1283099,5.511,204.3,8.75,1.414,16.26,104.3422,10.39,11.48,13.89,0,110.2,13.24,11.18,166.3
"2016-01-14 01:04:30",1283100,3.932,196.2,10.1,0.855,13.23,104.3592,10.43,11.31,13.74,0,110.2,13.23,11.22,158.2
"2016-01-14 01:05:00",1283101,5.877,208.4,5.703,0.659,12.82,104.3626,10.44,11.31,13.42,0,110.2,13.28,11.23,170.4
"2016-01-14 01:05:30",1283102,6.943,191.5,7.301,0.368,13.18,104.3601,10.44,11.33,13.29,0,110.2,13.28,11.22,153.5
"2016-01-14 01:06:00",1283103,6.451,186.8,10.76,1.491,14.08,104.3556,10.42,11.36,13.37,0,110.2,13.24,11.21,148.8
"2016-01-14 01:06:30",1283104,9.44,207.3,10.05,1.502,17.05,104.3539,10.42,11.56,13.4,0,110.2,13.24,11.21,169.3
"2016-01-14 01:07:00",1283105,8.92,211.8,8.64,1.53,17.9,104.3443,10.39,11.59,13.22,0,110.2,13.24,11.18,173.8
"2016-01-14 01:07:30",1283106,8.93,203.6,8.53,1.507,17.09,104.3369,10.38,11.56,13.3,0,110.2,13.24,11.16,165.6
"2016-01-14 01:08:00",1283107,7.298,203.4,4.856,1.277,14.28,104.3366,10.37,11.42,13.08,0,110.2,13.24,11.16,165.4
"2016-01-14 01:08:30",1283108,5.057,215.2,7.308,0.472,13.05,104.3369,10.38,11.33,12.87,0,110.2,13.28,11.16,177.2
"2016-01-14 01:09:00",1283109,2.871,210.3,7.547,0.468,13.07,104.3363,10.37,11.32,12.71,0,110.2,13.28,11.16,172.3
"2016-01-14 01:09:30",1283110,2.367,209.5,3.957,0.248,13.27,104.3375,10.38,11.3,12.68,0,110.2,13.28,11.17,171.5
"2016-01-14 01:10:00",1283111,3.689,219.7,12.32,1.664,14.57,104.3367,10.38,11.42,12.58,0,110.2,13.24,11.16,181.7
"2016-01-14 01:10:30",1283112,5.392,220.3,12.32,1.353,16.02,104.3304,10.36,11.45,12.65,0,110.2,13.24,11.15,182.3
"2016-01-14 01:11:00",1283113,6.683,219.5,11.34,1.684,17,104.3231,10.34,11.53,12.98,0,110.2,13.24,11.13,181.5
"2016-01-14 01:11:30",1283114,6.907,227,12.08,1.361,17.11,104.3185,10.33,11.55,13.07,0,110.2,13.24,11.12,189.0
"2016-01-14 01:12:00",1283115,5.777,232.1,7.959,1.051,14.17,104.3143,10.32,11.37,12.36,0,110.2,13.24,11.11,194.1
"2016-01-14 01:12:30",1283116,4.502,206.3,12.86,0.473,12.86,104.311,10.31,11.28,12.47,0,110.2,13.28,11.10,168.3
"2016-01-14 01:13:00",1283117,4.124,193.5,8.81,0.565,12.9,104.3033,10.29,11.28,13.28,0,110.2,13.28,11.08,155.5
"2016-01-14 01:13:30",1283118,5.052,191.7,9.74,1.843,14.08,104.3033,10.29,11.29,13.4,0,110.2,13.24,11.08,153.7
"2016-01-14 01:14:00",1283119,5.53,175.8,13.91,1.471,15.78,104.3027,10.29,11.47,13.69,0,110.2,13.24,11.08,137.8
"2016-01-14 01:14:30",1283120,3.831,190.8,16.02,1.058,13.6,104.3033,10.29,11.3,13.6,0,110.2,13.24,11.08,152.8
"2016-01-14 01:15:00",1283121,6.231,209.6,10.28,1.631,16.78,104.303,10.29,11.5,13.45,0,110.2,13.24,11.08,171.6
"2016-01-14 01:15:30",1283122,6.777,223.1,10.31,1.495,16.25,104.303,10.29,11.48,13.35,0,110.2,13.23,11.08,185.1
"2016-01-14 01:16:00",1283123,5.021,225.5,5.932,1.225,13.68,104.3005,10.28,11.26,13.3,0,110.2,13.23,11.07,187.5
"2016-01-14 01:16:30",1283124,4.984,225.8,6.27,0.691,12.74,104.2943,10.27,11.24,13.34,0,110.2,13.28,11.05,187.8
"2016-01-14 01:17:00",1283125,4.412,204.4,10.7,0.768,13.52,104.2796,10.23,11.29,13.59,0,110.2,13.23,11.02,166.4
"2016-01-14 01:17:30",1283126,4.173,214,10.83,1.595,15.16,104.2697,10.2,11.31,13.79,0,110.2,13.23,10.99,176.0
"2016-01-14 01:18:00",1283127,3.722,224.4,10.64,1.266,14.64,104.2691,10.2,11.31,13.77,0,110.2,13.23,10.99,186.4
"2016-01-14 01:18:30",1283128,3.086,216.7,6.754,1.261,14.37,104.2694,10.2,11.3,13.71,0,110.2,13.23,10.99,178.7
"2016-01-14 01:19:00",1283129,4.146,224,15.84,1.836,16.37,104.2694,10.2,11.39,13.7,0,110.2,13.23,10.99,186.0
"2016-01-14 01:19:30",1283130,6.625,234.7,9.48,1.669,16.85,104.2683,10.2,11.41,13.67,0,110.2,13.23,10.99,196.7
"2016-01-14 01:20:00",1283131,5.218,217,11.26,0.612,12.82,104.2607,10.18,11.21,13.16,0,110.2,13.23,10.97,179.0
"2016-01-14 01:20:30",1283132,5.053,201.6,4.306,0.358,12.58,104.2511,10.16,11.15,13.74,0,110.2,13.28,10.94,163.6
"2016-01-14 01:21:00",1283133,5.235,232.2,12.96,1.216,14.28,104.2398,10.13,11.25,13.66,0,110.2,13.23,10.91,194.2
"2016-01-14 01:21:30",1283134,5.734,233.4,10.87,1.431,14.97,104.2358,10.12,11.24,13.13,0,110.2,13.24,10.90,195.4
"2016-01-14 01:22:00",1283135,4.994,215.9,14.17,1.357,13.72,104.2358,10.12,11.13,13.04,0,110.2,13.24,10.90,177.9
"2016-01-14 01:22:30",1283136,5.784,241,7.449,1.268,15.54,104.2344,10.11,11.31,12.81,0,110.2,13.24,10.90,203.0
"2016-01-14 01:23:00",1283137,6.167,236.9,11,1.424,16.36,104.2271,10.09,11.31,12.53,0,110.2,13.23,10.88,198.9
"2016-01-14 01:23:30",1283138,4.885,222.1,9.2,1.407,14.89,104.2195,10.08,11.17,12.33,0,110.2,13.24,10.86,184.1
"2016-01-14 01:24:00",1283139,4.351,218.8,4.731,0.323,12.95,104.2169,10.07,11.08,12.4,0,110.2,13.28,10.86,180.8
"2016-01-14 01:24:30",1283140,5.997,229.1,8.19,1.5,14.47,104.2169,10.07,11.12,12.49,0,110.2,13.24,10.86,191.1
"2016-01-14 01:25:00",1283141,5.9,228.1,4.817,1.408,14.82,104.2121,10.06,11.18,12.48,0,110.2,13.24,10.84,190.1
"2016-01-14 01:25:30",1283142,6.63,225,8.82,1.818,14.97,104.2034,10.03,11.12,12.34,0,110.2,13.24,10.82,187.0
"2016-01-14 01:26:00",1283143,6.299,224.3,8.55,1.839,15.35,104.202,10.03,11.16,12.47,0,110.2,13.24,10.82,186.3
"2016-01-14 01:26:30",1283144,7.081,218.4,8.44,1.482,16.54,104.202,10.03,11.26,12.91,0,110.2,13.24,10.82,180.4
"2016-01-14 01:27:00",1283145,6.821,239.3,14.29,1.776,16.22,104.202,10.03,11.22,13.11,0,110.2,13.24,10.82,201.3
"2016-01-14 01:27:30",1283146,5.824,236.7,3.98,0.482,12.91,104.202,10.03,11.01,13.04,0,110.2,13.29,10.82,198.7
"2016-01-14 01:28:00",1283147,6.376,235,7.288,0.943,13.51,104.202,10.03,11.11,12.93,0,110.2,13.24,10.82,197.0
"2016-01-14 01:28:30",1283148,7.097,230.6,9.78,1.454,14.91,104.202,10.03,11.13,13.21,0,110.2,13.24,10.82,192.6
"2016-01-14 01:29:00",1283149,5.01,229,6.954,1.344,14.24,104.202,10.03,11.11,13.42,0,110.2,13.24,10.82,191.0
"2016-01-14 01:29:30",1283150,4.748,231.1,8.51,1.286,14.43,104.202,10.03,11.13,13.52,0,110.2,13.24,10.82,193.1
"2016-01-14 01:30:00",1283151,6.472,231.9,7.905,1.404,15.61,104.202,10.03,11.24,13.69,0,110.2,13.24,10.82,193.9
"2016-01-14 01:30:30",1283152,6.651,234,14.23,1.477,15.67,104.2011,10.03,11.18,13.46,0,110.2,13.24,10.82,196.0
"2016-01-14 01:31:00",1283153,7.46,223.7,6.536,1.031,14.55,104.1963,10.02,11.07,13.11,0,110.2,13.24,10.80,185.7
"2016-01-14 01:31:30",1283154,5.902,220.7,7.349,1.151,13.36,104.1907,10,11.05,12.72,0,110.2,13.24,10.79,182.7
"2016-01-14 01:32:00",1283155,6.204,223.1,7.072,1.575,15.63,104.1844,9.99,11.13,13.03,0,110.2,13.24,10.77,185.1
"2016-01-14 01:32:30",1283156,3.781,196.5,4.869,0.446,12.8,104.1847,9.99,11,13.38,0,110.2,13.28,10.77,158.5
"2016-01-14 01:33:00",1283157,4.254,223.6,17.68,1.739,14.99,104.1822,9.98,11.1,13.53,0,110.2,13.23,10.77,185.6
"2016-01-14 01:33:30",1283158,7.659,255.5,9.35,1.279,15.39,104.1723,9.95,11.13,12.4,0,110.2,13.24,10.74,217.5
"2016-01-14 01:34:00",1283159,6.783,246.5,14.86,1.743,15.37,104.1686,9.95,11.1,12.57,0,110.2,13.23,10.73,208.5
"2016-01-14 01:34:30",1283160,5.279,248.6,17.25,1.481,14.27,104.1726,9.96,11.07,12.46,0,110.2,13.24,10.74,210.6
"2016-01-14 01:35:00",1283161,5.856,236.9,7.653,1.117,12.76,104.1703,9.95,10.98,12.72,0,110.2,13.24,10.74,198.9
"2016-01-14 01:35:30",1283162,6.846,239.6,9.53,0.985,14.32,104.1686,9.95,11.13,13.14,0,110.2,13.23,10.73,201.6
"2016-01-14 01:36:00",1283163,7.606,239.8,9.8,1.956,13.98,104.1681,9.94,11.04,12.35,0,110.2,13.24,10.73,201.8
"2016-01-14 01:36:30",1283164,6.72,249,5.839,1.469,15.04,104.1681,9.94,11.11,11.66,0,110.2,13.23,10.73,211.0
"2016-01-14 01:37:00",1283165,9.35,273,10.7,1.554,16.69,104.1681,9.94,11.11,11.33,0,110.2,13.24,10.73,235.0
"2016-01-14 01:37:30",1283166,7.951,264.7,6.584,1.629,14.76,104.1681,9.94,11.04,11.3,0,110.2,13.24,10.73,226.7
"2016-01-14 01:38:00",1283167,8.88,256.5,7.433,1.71,14.28,104.1681,9.94,10.99,11.44,0,110.2,13.24,10.73,218.5
"2016-01-14 01:38:30",1283168,7.306,269.2,12.11,1.888,14.33,104.1681,9.94,11.03,11.5,0,110.2,13.24,10.73,231.2
"2016-01-14 01:39:00",1283169,7.819,263.4,12.31,1.442,14.06,104.1681,9.94,11.08,11.56,0,110.2,13.24,10.73,225.4
"2016-01-14 01:39:30",1283170,7.213,256.1,6.878,1.508,14.95,104.1681,9.94,11.13,11.93,0,110.2,13.24,10.73,218.1
"2016-01-14 01:40:00",1283171,8.79,264.4,10.76,1.765,14.96,104.1681,9.94,11.05,11.79,0,110.2,13.24,10.73,226.4
"2016-01-14 01:40:30",1283172,8.43,254.2,14.7,2.215,14.68,104.1681,9.94,11.02,11.72,0,110.2,13.24,10.73,216.2
"2016-01-14 01:41:00",1283173,7.544,254.2,14.02,1.198,14.49,104.1669,9.94,11.08,12.36,0,110.2,13.24,10.73,216.2
"2016-01-14 01:41:30",1283174,7.915,260.4,5.378,0.513,12.7,104.1619,9.93,10.91,12.04,0,110.2,13.29,10.71,222.4
"2016-01-14 01:42:00",1283175,8.71,269.6,6.355,1.763,15.38,104.1548,9.91,11.09,12.13,0,110.2,13.24,10.70,231.6
"2016-01-14 01:42:30",1283176,8.21,270.8,10.14,1.233,14.56,104.1489,9.89,11,12.74,0,110.2,13.24,10.68,232.8
"2016-01-14 01:43:00",1283177,8.06,275.9,7.264,1.418,14.92,104.1472,9.89,11.08,11.86,0,110.2,13.24,10.68,237.9
"2016-01-14 01:43:30",1283178,6.635,272.2,10.04,1.387,13.68,104.1421,9.88,10.94,11.52,0,110.2,13.24,10.66,234.2
"2016-01-14 01:44:00",1283179,6.369,264.1,18.76,1.741,14.84,104.1342,9.86,10.98,12.13,0,110.2,13.24,10.64,226.1
"2016-01-14 01:44:30",1283180,6.163,262.2,7.149,0.787,13.11,104.1319,9.85,10.91,12.04,0,110.2,13.25,10.64,224.2
"2016-01-14 01:45:00",1283181,6.608,267.5,7.486,1.389,13.34,104.124,9.83,10.91,11.73,0,110.2,13.24,10.62,229.5
"2016-01-14 01:45:30",1283182,6.38,282.2,10.21,1.545,14.72,104.1156,9.81,10.95,11.88,0,110.2,13.24,10.60,244.2
"2016-01-14 01:46:00",1283183,6.817,283.7,7.831,1.445,13.61,104.1026,9.78,10.93,11.81,0,110.2,13.25,10.56,245.7
"2016-01-14 01:46:30",1283184,7.354,279.9,13.3,1.555,15.15,104.1003,9.77,10.96,11.86,0,110.2,13.24,10.56,241.9
"2016-01-14 01:47:00",1283185,7.156,274.5,9.2,1.653,14.9,104.0997,9.77,10.91,12.22,0,110.2,13.24,10.56,236.5